Location: Anaheim
(33.8350°N, 117.9140°W)
Time: 00:48:44
(UTC-07:00)

Amateur Radio Satellites - All Passes

Search period start: 19 September 2014 00:18
Search period end: 20 September 2014 00:18
Location: Anaheim, 33.8350°N, 117.9140°W

Satellite Date Start Highest point End Downlink Frequencies (MHz)
Time Altitude Azimuth
UOSAT-12 19 Sep 01:12:10 01:16:05 27° 307° (NW) 01:20:05 437.025 FM, 437.400 FM
PANSAT 19 Sep 01:14:06 01:16:42 17° 161° (SSE) 01:19:18 not established
Oscar 16 19 Sep 01:22:35 01:26:07 18° 94° (E) 01:29:37 437.025 USB, Beacon 2401.1428
AO-Echo 19 Sep 01:42:33 01:44:26 12° 93° (E) 01:46:21 ?
ITAMSAT 1 19 Sep 02:04:24 02:08:02 19° 95° (E) 02:11:40 435.822 SSB
Uribyol 2 19 Sep 02:08:27 02:12:30 23° 96° (E) 02:16:32 436.500 FM
JAS-1B 19 Sep 02:19:02 02:24:02 31° 98° (E) 02:29:06 435.800 - 435.900 CW/SSB
Oscar 19 19 Sep 02:21:46 02:26:57 75° 102° (ESE) 02:32:04 437.125 CW, 437.150 USB
ISS 19 Sep 02:32:00 02:35:19 87° 136° (SE) 02:38:39 145.800 FM
AO-27 19 Sep 02:38:09 02:43:07 43° 99° (E) 02:48:03 436.795 MHz FM
Saudisat 1A 19 Sep 02:38:54 02:43:19 69° 60° (ENE) 02:47:41 436.775 MHz
PANSAT 19 Sep 02:52:57 02:56:26 33° 174° (S) 02:59:55 not established
RS-15 19 Sep 02:55:51 03:04:27 27° 104° (ESE) 03:12:53 29.354 - 29.394 USB, Beacon 29.352 USB
Oscar 16 19 Sep 03:00:44 03:05:36 42° 288° (WNW) 03:10:25 437.025 USB, Beacon 2401.1428
KITSAT 1 19 Sep 03:06:39 03:10:56 15° 40° (NE) 03:15:12 435.175 FM
AO-Echo 19 Sep 03:18:41 03:23:27 58° 285° (WNW) 03:28:22 ?
Gurwin Techsat 1B 19 Sep 03:26:56 03:32:12 61° 101° (E) 03:37:25 435.225 FM
ITAMSAT 1 19 Sep 03:42:45 03:47:39 42° 288° (WNW) 03:52:32 435.822 SSB
Uribyol 2 19 Sep 03:47:16 03:52:00 36° 289° (WNW) 03:56:43 436.500 FM
Oscar 19 19 Sep 04:04:08 04:05:35 11° 297° (WNW) 04:07:01 437.125 CW, 437.150 USB
TMSAT-1 19 Sep 04:04:22 04:09:40 79° 284° (WNW) 04:14:58 436.925 FM
JAS-1B 19 Sep 04:09:57 04:14:36 26° 293° (WNW) 04:19:16 435.800 - 435.900 CW/SSB
ISS 19 Sep 04:11:05 04:12:26 12° 332° (NNW) 04:13:47 145.800 FM
AO-27 19 Sep 04:18:38 04:22:15 19° 294° (WNW) 04:25:53 436.795 MHz FM
AO-7 19 Sep 04:28:38 04:36:12 38° 100° (E) 04:43:43 29.400 - 29.500 MHz
Uosat F 19 Sep 04:28:46 04:32:59 27° 97° (E) 04:37:11 435.120 FM
OPAL 19 Sep 04:28:56 04:33:58 56° 71° (ENE) 04:39:04 ?
PANSAT 19 Sep 04:32:47 04:36:16 33° 186° (S) 04:39:46 not established
KITSAT 1 19 Sep 04:59:48 05:07:52 69° 61° (ENE) 05:15:53 435.175 FM
RS-15 19 Sep 05:04:44 05:15:47 70° 301° (WNW) 05:26:42 29.354 - 29.394 USB, Beacon 29.352 USB
Gurwin Techsat 1B 19 Sep 05:08:49 05:11:35 14° 296° (WNW) 05:14:20 435.225 FM
JAS-2 19 Sep 05:28:58 05:33:21 19° 95° (E) 05:38:02 435.800 - 435.900 CW/SSB, 435.910 FM
Hamsat 19 Sep 05:58:43 06:02:05 23° 95° (E) 06:05:24 145.90 MHz
Uosat F 19 Sep 06:07:25 06:11:40 28° 291° (WNW) 06:15:55 435.120 FM
OPAL 19 Sep 06:10:25 06:13:07 14° 265° (W) 06:15:51 ?
PANSAT 19 Sep 06:13:23 06:16:00 18° 198° (SSW) 06:18:37 not established
AO-7 19 Sep 06:21:19 06:28:53 42° 295° (WNW) 06:36:28 29.400 - 29.500 MHz
SO-50 19 Sep 06:25:59 06:28:13 13° 47° (NE) 06:30:27 436.795 FM
STRAND 1 19 Sep 06:47:51 06:52:53 70° 75° (ENE) 06:57:57 ?
KITSAT 1 19 Sep 06:56:51 07:02:28 21° 257° (WSW) 07:08:06 435.175 FM
JAS-2 19 Sep 07:12:30 07:18:30 59° 286° (WNW) 07:25:17 435.800 - 435.900 CW/SSB, 435.910 FM
MaSat-1 19 Sep 07:21:45 07:25:02 18° 102° (ESE) 07:28:21 437.345 MHz
RS-15 19 Sep 07:23:20 07:30:32 19° 327° (NNW) 07:37:47 29.354 - 29.394 USB, Beacon 29.352 USB
Hamsat 19 Sep 07:34:34 07:37:55 23° 289° (WNW) 07:41:14 145.90 MHz
SO-67 19 Sep 07:48:05 07:51:30 63° 100° (E) 07:54:55 435.3500 MHz FM
SO-50 19 Sep 08:04:28 08:09:18 76° 243° (WSW) 08:14:09 436.795 FM
UOSAT-12 19 Sep 08:07:23 08:08:31 11° 45° (NE) 08:09:39 437.025 FM, 437.400 FM
STRAND 1 19 Sep 08:31:54 08:32:29 10° 269° (W) 08:33:04 ?
MaSat-1 19 Sep 08:56:38 09:01:25 46° 296° (WNW) 09:06:13 437.345 MHz
ISS 19 Sep 09:04:27 09:06:54 19° 33° (NNE) 09:09:20 145.800 FM
UKube-1 19 Sep 09:23:15 09:25:45 15° 94° (E) 09:28:15 145.840 MHz, 145.915 MHz
HO-68 19 Sep 09:30:58 09:37:56 51° 101° (E) 09:44:52 435.675 MHz FM
UOSAT-12 19 Sep 09:44:36 09:49:20 89° 242° (WSW) 09:53:57 437.025 FM, 437.400 FM
FUNcube-1 19 Sep 10:30:45 10:34:42 28° 96° (E) 10:38:35 145.950 - 145.970 MHz USB
ISS 19 Sep 10:40:35 10:43:42 38° 228° (SW) 10:46:48 145.800 FM
Oscar 11 19 Sep 10:41:21 10:45:43 83° 283° (WNW) 10:50:01 145.825 FM, Beacon 2401.500 USB
PCSat 19 Sep 10:46:55 10:48:36 11° 102° (ESE) 10:50:18 145.825 MHz
UKube-1 19 Sep 10:58:01 11:02:03 37° 288° (WNW) 11:06:04 145.840 MHz, 145.915 MHz
HO-68 19 Sep 11:19:28 11:25:12 27° 297° (WNW) 11:30:57 435.675 MHz FM
Sapphire 19 Sep 11:58:59 12:04:16 58° 112° (ESE) 12:09:34 437.095 MHz 1200 baud AX-25 AFSK
RS-15 19 Sep 11:59:16 12:08:09 26° 41° (NE) 12:17:13 29.354 - 29.394 USB, Beacon 29.352 USB
FUNcube-1 19 Sep 12:07:16 12:10:54 23° 290° (WNW) 12:14:30 145.950 - 145.970 MHz USB
PCSat 19 Sep 12:25:55 12:31:18 73° 296° (WNW) 12:36:44 145.825 MHz
Oscar 16 19 Sep 12:36:05 12:39:40 19° 66° (ENE) 12:43:16 437.025 USB, Beacon 2401.1428
AO-Echo 19 Sep 12:53:42 12:54:29 10° 64° (ENE) 12:55:16 ?
JAS-1B 19 Sep 12:59:01 13:05:51 27° 67° (ENE) 13:11:51 435.800 - 435.900 CW/SSB
ITAMSAT 1 19 Sep 13:19:00 13:22:42 20° 67° (ENE) 13:26:23 435.822 SSB
Uribyol 2 19 Sep 13:22:51 13:26:53 24° 68° (ENE) 13:30:55 436.500 FM
Oscar 19 19 Sep 13:34:37 13:39:47 73° 75° (ENE) 13:44:59 437.125 CW, 437.150 USB
Sapphire 19 Sep 13:44:28 13:48:03 18° 308° (NW) 13:51:39 437.095 MHz 1200 baud AX-25 AFSK
TMSAT-1 19 Sep 13:45:30 13:47:15 12° 63° (ENE) 13:49:00 436.925 FM
AO-27 19 Sep 13:52:33 13:57:26 45° 72° (ENE) 14:02:20 436.795 MHz FM
RS-15 19 Sep 14:10:43 14:21:56 87° 244° (WSW) 14:33:40 29.354 - 29.394 USB, Beacon 29.352 USB
Oscar 16 19 Sep 14:13:44 14:18:39 43° 261° (W) 14:23:36 437.025 USB, Beacon 2401.1428
AO-Echo 19 Sep 14:27:56 14:32:41 67° 258° (WSW) 14:37:22 ?
Gurwin Techsat 1B 19 Sep 14:44:07 14:49:21 66° 75° (ENE) 14:54:37 435.225 FM
JAS-1B 19 Sep 14:47:15 14:56:04 58° 258° (WSW) 15:03:32 435.800 - 435.900 CW/SSB
ITAMSAT 1 19 Sep 14:57:01 15:01:51 41° 261° (W) 15:06:43 435.822 SSB
Uribyol 2 19 Sep 15:01:28 15:06:07 34° 262° (W) 15:10:49 436.500 FM
Oscar 19 19 Sep 15:18:53 15:19:33 10° 269° (W) 15:20:14 437.125 CW, 437.150 USB
TMSAT-1 19 Sep 15:21:12 15:26:28 75° 258° (WSW) 15:31:46 436.925 FM
AO-7 19 Sep 15:23:34 15:30:59 38° 64° (ENE) 15:38:23 29.400 - 29.500 MHz
AO-27 19 Sep 15:33:43 15:37:06 18° 266° (W) 15:40:30 436.795 MHz FM
Uosat F 19 Sep 15:38:36 15:42:38 25° 69° (ENE) 15:46:40 435.120 FM
RS-15 19 Sep 16:26:16 16:32:47 17° 260° (W) 16:39:29 29.354 - 29.394 USB, Beacon 29.352 USB
Gurwin Techsat 1B 19 Sep 16:27:43 16:29:42 12° 268° (W) 16:31:41 435.225 FM
Saudisat 1A 19 Sep 16:41:40 16:45:51 45° 114° (ESE) 16:50:03 436.775 MHz
OPAL 19 Sep 16:43:50 16:47:37 21° 97° (E) 16:51:21 ?
Hamsat 19 Sep 16:50:22 16:51:43 11° 66° (ENE) 16:53:03 145.90 MHz
AO-7 19 Sep 17:15:48 17:23:33 43° 259° (W) 17:31:20 29.400 - 29.500 MHz
Uosat F 19 Sep 17:16:54 17:21:15 30° 262° (W) 17:25:37 435.120 FM
MaSat-1 19 Sep 17:19:24 17:20:28 11° 53° (NE) 17:21:29 437.345 MHz
JAS-2 19 Sep 17:22:10 17:26:57 35° 71° (ENE) 17:31:37 435.800 - 435.900 CW/SSB, 435.910 FM
KITSAT 1 19 Sep 17:34:07 17:36:58 12° 100° (E) 17:39:49 435.175 FM
SO-67 19 Sep 18:19:22 18:20:35 12° 69° (ENE) 18:21:47 435.3500 MHz FM
OPAL 19 Sep 18:21:49 18:26:34 39° 291° (WNW) 18:31:14 ?
Saudisat 1A 19 Sep 18:22:47 18:25:37 17° 310° (NW) 18:28:29 436.775 MHz
Hamsat 19 Sep 18:22:53 18:27:09 54° 260° (W) 18:31:26 145.90 MHz
AO-40 19 Sep 18:24:25 00:18:44 47° 170° (S) 17:23:59 Beacon 2401.320
MaSat-1 19 Sep 18:54:15 18:57:28 33° 254° (WSW) 19:00:16 437.345 MHz
STRAND 1 19 Sep 19:02:45 19:07:20 33° 98° (E) 19:11:55 ?
JAS-2 19 Sep 19:08:10 19:12:08 21° 264° (W) 19:16:01 435.800 - 435.900 CW/SSB, 435.910 FM
KITSAT 1 19 Sep 19:23:03 19:31:07 82° 115° (ESE) 19:39:14 435.175 FM
SO-67 19 Sep 19:50:14 19:53:17 29° 263° (W) 19:56:21 435.3500 MHz FM
HO-68 19 Sep 19:56:24 20:02:03 26° 63° (ENE) 20:07:42 435.675 MHz FM
STRAND 1 19 Sep 20:42:14 20:46:19 25° 292° (WNW) 20:50:25 ?
Sapphire 19 Sep 20:51:36 20:55:45 22° 54° (NE) 20:59:52 437.095 MHz 1200 baud AX-25 AFSK
PCSat 19 Sep 21:17:58 21:23:03 39° 59° (ENE) 21:28:05 145.825 MHz
KITSAT 1 19 Sep 21:21:30 21:27:24 22° 314° (NW) 21:33:20 435.175 FM
FUNcube-1 19 Sep 21:24:49 21:27:09 14° 67° (ENE) 21:29:31 145.950 - 145.970 MHz USB
Oscar 11 19 Sep 21:32:25 21:36:34 46° 74° (ENE) 21:40:45 145.825 FM, Beacon 2401.500 USB
HO-68 19 Sep 21:42:24 21:49:18 52° 259° (WSW) 21:56:14 435.675 MHz FM
UKube-1 19 Sep 21:49:11 21:53:30 73° 258° (WSW) 21:57:50 145.840 MHz, 145.915 MHz
SO-50 19 Sep 22:15:41 22:20:07 90° 298° (WNW) 22:24:41 436.795 FM
Sapphire 19 Sep 22:34:12 22:39:21 46° 250° (WSW) 22:44:29 437.095 MHz 1200 baud AX-25 AFSK
FUNcube-1 19 Sep 22:58:57 23:03:05 43° 261° (W) 23:07:22 145.950 - 145.970 MHz USB
PCSat 19 Sep 23:01:58 23:06:10 23° 254° (WSW) 23:10:20 145.825 MHz
Oscar 11 19 Sep 23:11:12 23:12:57 12° 267° (W) 23:14:41 145.825 FM, Beacon 2401.500 USB
UOSAT-12 19 Sep 23:51:49 23:56:22 70° 117° (ESE) 00:01:02 437.025 FM, 437.400 FM
